Regional Weather Roundup
Issued by NWS Little Rock, AR

Home | Current Version | Previous Version | Graphics & Text | Print | Product List | Glossary On
Versions: 1 2 3 4 5 6 7 8 9 10 11 12 13 14 15 16 17 18 19 20 21 22 23 24 25 26 27 28 29 30 31 32 33 34 35 36 37 38 39 40 41 42 43 44 45 46 47 48
000
ASUS44 KLZK 240205
RWRLZK

WEATHER ROUNDUP FOR ARKANSAS
NATIONAL WEATHER SERVICE LITTLE ROCK AR
800 PM CST TUE DEC 23 2014

NOTE: "FAIR" INDICATES FEW OR NO CLOUDS BELOW 12,000 FEET WITH NO
SIGNIFICANT WEATHER AND/OR OBSTRUCTIONS TO VISIBILITY.

ARZ001-003-010-029-240300-
NORTHWEST ARKANSAS

CITY           SKY/WX    TMP DP  RH WIND       PRES   REMARKS
FAYETTEVILLE   CLOUDY    38  31  76 NW10      29.83R
FORT SMITH     CLOUDY    46  31  55 NW9       29.85R
HARRISON       CLOUDY    40  34  79 NW7       29.80R
BENTONVILLE    CLOUDY    39  28  65 NW7       29.84R
ROGERS         CLOUDY    38  31  76 NW8       29.83R
SILOAM SPGS    CLOUDY    37  27  65 NW12      29.85R
HIGHFILL       CLOUDY    38  31  76 NW6       29.83R
SPRINGDALE     CLOUDY    39  30  70 NW13      29.84R
$$

ARZ004-005-016-240300-
NORTH CENTRAL ARKANSAS

CITY           SKY/WX    TMP DP  RH WIND       PRES   REMARKS
BATESVILLE     CLOUDY    46  41  81 SW3       29.78R
FLIPPIN        FAIR      41  32  70 W8        29.78R
MTN HOME       FAIR      40  35  83 NW5       29.77R
$$

ARZ040-041-240300-
WEST CENTRAL ARKANSAS

CITY           SKY/WX    TMP DP  RH WIND       PRES   REMARKS
MENA           FAIR      45  36  70 NW6       29.81F
MOUNT IDA      FAIR      45  36  70 VRB5      29.77R
$$

ARZ009-017-025-026-028-240300-
NORTHEAST ARKANSAS

CITY           SKY/WX    TMP DP  RH WIND       PRES   REMARKS
CORNING        CLOUDY    46  45  93 N5        29.74S
JONESBORO      CLOUDY    48  44  86 NW5       29.73R
NEWPORT        LGT RAIN  47  43  86 NW7       29.76R
WALNUT RIDGE   CLOUDY    46  39  76 NW7       29.73R
BLYTHEVILLE    CLOUDY    48  47  96 N10       29.70R
$$

ARZ022-023-033-042-044-240300-
CENTRAL ARKANSAS

CITY           SKY/WX    TMP DP  RH WIND       PRES   REMARKS
LITTLE ROCK    CLOUDY    48  43  82 NW8       29.77R
N LITTLE ROCK  CLOUDY    46  45  97 NW5       29.77R
JACKSONVILLE   DRIZZLE   46  45  93 W6        29.77R
SEARCY         CLOUDY    47  43  86 W7        29.78R
HOT SPRINGS    MOCLDY    46  40  79 NW6       29.79R
RUSSELLVILLE   MOCLDY    46  40  79 W7        29.78R
CLINTON        LGT RAIN  46  45  93 CALM      29.80R
$$

ARZ036-240300-
EAST ARKANSAS

CITY           SKY/WX    TMP DP  RH WIND       PRES   REMARKS
WEST MEMPHIS   CLOUDY    48  47  96 N5        29.71R FOG
$$

ARZ050-053-066-070-073-240300-
SOUTHWEST ARKANSAS

CITY           SKY/WX    TMP DP  RH WIND       PRES   REMARKS
ARKADELPHIA    MOCLDY    46  46 100 CALM      29.80S
CAMDEN         MOCLDY    46  41  81 MISG      29.78R
TEXARKANA      CLOUDY    48  42  80 W9        29.79S
EL DORADO      CLOUDY    47  43  86 NW7       29.78R
DE QUEEN       FAIR      45  37  73 NW5       29.81R
$$

ARZ056-057-069-240300-
SOUTHEAST ARKANSAS

CITY           SKY/WX    TMP DP  RH WIND       PRES   REMARKS
PINE BLUFF     CLOUDY    48  42  80 NW9       29.75R
STUTTGART      CLOUDY    48  43  81 NW10      29.75R
MONTICELLO     CLOUDY    49  43  80 NW7       29.72S

$$




USA.gov is the U.S. government's official web portal to all federal, state and local government web resources and services.